| time (UTC) | temp C | wind direction | speed KPH | gust KPH | rain 1hr cm | rain 24hr cm | rain mn cm | humidity % | barometer mb |
| 20260905050021 | -17 | 0.0 | 0.0 | 0.00 | 0.00 | 0.00 | 1015.5 | ||
| 20260905044520 | -17 | 105 | 0.0 | 6.4 | 0.00 | 0.00 | 0.00 | 1015.6 | |
| 20260905043012 | 26 | 101 | 0.0 | 4.8 | 0.00 | 0.00 | 0.00 | 36 | 1015.4 |
| 20260905041512 | 26 | 92 | 0.0 | 4.8 | 0.00 | 0.00 | 0.00 | 36 | 1015.3 |
| 20260905040010 | 26 | 91 | 0.0 | 3.2 | 0.00 | 0.00 | 0.00 | 36 | 1015.3 |
| 20260905034509 | 26 | 100 | 1.6 | 8.0 | 0.00 | 0.00 | 0.00 | 35 | 1015.4 |
| 20260905033011 | 26 | 109 | 0.0 | 1.6 | 0.00 | 0.00 | 0.00 | 35 | 1015.4 |
| 20260905031510 | 26 | 84 | 0.0 | 3.2 | 0.00 | 0.00 | 0.00 | 35 | 1015.6 |
| 20260905030004 | 26 | 53 | 0.0 | 3.2 | 0.00 | 0.00 | 0.00 | 34 | 1015.6 |
| 20260905024501 | 26 | 97 | 0.0 | 4.8 | 0.00 | 0.00 | 0.00 | 33 | 1015.7 |
| 20260905023104 | 26 | 108 | 0.0 | 3.2 | 0.00 | 0.00 | 0.00 | 33 | 1015.8 |
| 20260905021558 | 26 | 103 | 0.0 | 4.8 | 0.00 | 0.00 | 0.00 | 32 | 1015.8 |
| 20260905020059 | 27 | 99 | 1.6 | 8.0 | 0.00 | 0.00 | 0.00 | 31 | 1015.8 |
| 20260905014554 | 27 | 91 | 0.0 | 3.2 | 0.00 | 0.00 | 0.00 | 31 | 1016.0 |
| 20260905013055 | 27 | 103 | 0.0 | 3.2 | 0.00 | 0.00 | 0.00 | 30 | 1016.1 |
| 20260905011556 | 27 | 117 | 0.0 | 8.0 | 0.00 | 0.00 | 0.00 | 30 | 1016.1 |
| 20260905010105 | 27 | 98 | 0.0 | 3.2 | 0.00 | 0.00 | 0.00 | 30 | 1016.2 |
| 20260905004550 | 27 | 80 | 0.0 | 4.8 | 0.00 | 0.00 | 0.00 | 29 | 1016.2 |
| 20260905003049 | 27 | 104 | 1.6 | 4.8 | 0.00 | 0.00 | 0.00 | 29 | 1016.2 |
| 20260905001550 | 28 | 127 | 0.0 | 4.8 | 0.00 | 0.00 | 0.00 | 29 | 1016.1 |
| 20260905000048 | 28 | 88 | 1.6 | 8.0 | 0.00 | 0.00 | 0.00 | 28 | 1016.2 |
| 20260904234550 | 28 | 87 | 0.0 | 4.8 | 0.00 | 0.00 | 0.00 | 28 | 1016.2 |
| 20260904233045 | 28 | 117 | 0.0 | 4.8 | 0.00 | 0.00 | 0.00 | 28 | 1016.2 |
| 20260904231545 | 28 | 110 | 0.0 | 4.8 | 0.00 | 0.00 | 0.00 | 28 | 1016.2 |
| 20260904230046 | 27 | 79 | 0.0 | 6.4 | 0.00 | 0.00 | 0.00 | 29 | 1016.2 |
| 20260904224601 | 27 | 34 | 0.0 | 3.2 | 0.00 | 0.00 | 0.00 | 29 | 1016.2 |
| 20260904223141 | 28 | 134 | 6.4 | 12.9 | 0.00 | 0.00 | 0.00 | 28 | 1016.3 |
| 20260904221538 | 28 | 150 | 0.0 | 0.0 | 0.00 | 0.00 | 0.00 | 28 | 1016.0 |
| 20260904220033 | 28 | 156 | 0.0 | 1.6 | 0.00 | 0.00 | 0.00 | 27 | 1015.9 |
| 20260904214532 | 30 | 144 | 1.6 | 8.0 | 0.00 | 0.00 | 0.00 | 25 | 1015.9 |
| 20260904213033 | 31 | 63 | 0.0 | 1.6 | 0.00 | 0.00 | 0.00 | 24 | 1015.8 |
| 20260904211533 | 30 | 5 | 0.0 | 3.2 | 0.00 | 0.00 | 0.00 | 24 | 1015.9 |
| 20260904210030 | 31 | 49 | 0.0 | 3.2 | 0.00 | 0.00 | 0.00 | 24 | 1016.0 |
| 20260904204530 | 31 | 307 | 0.0 | 3.2 | 0.00 | 0.00 | 0.00 | 24 | 1016.0 |
| 20260904203038 | 30 | 30 | 0.0 | 1.6 | 0.00 | 0.00 | 0.00 | 24 | 1015.9 |
| 20260904201529 | 30 | 302 | 0.0 | 3.2 | 0.00 | 0.00 | 0.00 | 24 | 1015.8 |
| 20260904200028 | 30 | 66 | 0.0 | 3.2 | 0.00 | 0.00 | 0.00 | 25 | 1015.8 |
| 20260904194528 | 29 | 75 | 0.0 | 3.2 | 0.00 | 0.00 | 0.00 | 28 | 1015.6 |
| 20260904193029 | 30 | 127 | 0.0 | 0.0 | 0.00 | 0.00 | 0.00 | 27 | 1015.4 |
| 20260904191526 | 30 | 127 | 0.0 | 0.0 | 0.00 | 0.00 | 0.00 | 25 | 1015.4 |
| 20260904190026 | 31 | 117 | 0.0 | 3.2 | 0.00 | 0.00 | 0.00 | 24 | 1015.1 |
| 20260904184623 | 32 | 220 | 0.0 | 0.0 | 0.00 | 0.00 | 0.00 | 23 | 1015.0 |
| 20260904183025 | 33 | 219 | 0.0 | 1.6 | 0.00 | 0.00 | 0.00 | 21 | 1015.0 |
| 20260904181523 | 33 | 221 | 0.0 | 1.6 | 0.00 | 0.00 | 0.00 | 20 | 1014.9 |
| 20260904180022 | 34 | 215 | 0.0 | 1.6 | 0.00 | 0.00 | 0.00 | 19 | 1014.9 |
| 20260904174521 | 35 | 224 | 0.0 | 1.6 | 0.00 | 0.00 | 0.00 | 19 | 1015.0 |
| 20260904173028 | 35 | 271 | 0.0 | 4.8 | 0.00 | 0.00 | 0.00 | 19 | 1015.0 |
| 20260904171520 | 35 | 254 | 0.0 | 4.8 | 0.00 | 0.00 | 0.00 | 19 | 1015.0 |
| 20260904170019 | 35 | 239 | 0.0 | 4.8 | 0.00 | 0.00 | 0.00 | 20 | 1015.0 |
| 20260904164521 | 35 | 226 | 3.2 | 0.0 | 0.00 | 0.00 | 0.00 | 19 | 1015.0 |
| 20260904163018 | 36 | 231 | 0.0 | 11.3 | 0.00 | 0.00 | 0.00 | 19 | 1015.0 |
| 20260904161517 | 36 | 217 | 1.6 | 9.7 | 0.00 | 0.00 | 0.00 | 18 | 1015.0 |
| 20260904160020 | 37 | 212 | 4.8 | 9.7 | 0.00 | 0.00 | 0.00 | 17 | 1015.0 |
| 20260904154515 | 37 | 114 | 1.6 | 11.3 | 0.00 | 0.00 | 0.00 | 18 | 1015.1 |
| 20260904153014 | 36 | 134 | 1.6 | 11.3 | 0.00 | 0.00 | 0.00 | 19 | 1015.1 |
| 20260904151515 | 37 | 155 | 1.6 | 6.4 | 0.00 | 0.00 | 0.00 | 17 | 1015.2 |
| 20260904150029 | 37 | 270 | 3.2 | 16.1 | 0.00 | 0.00 | 0.00 | 17 | 1015.3 |
| 20260904144511 | 37 | 190 | 1.6 | 4.8 | 0.00 | 0.00 | 0.00 | 18 | 1015.5 |
| 20260904143009 | 37 | 84 | 0.0 | 6.4 | 0.00 | 0.00 | 0.00 | 18 | 1015.5 |
| 20260904141515 | 37 | 264 | 3.2 | 14.5 | 0.00 | 0.00 | 0.00 | 17 | 1015.6 |
| 20260904140007 | 37 | 169 | 1.6 | 4.8 | 0.00 | 0.00 | 0.00 | 18 | 1015.7 |
| 20260904134503 | 37 | 295 | 1.6 | 12.9 | 0.00 | 0.00 | 0.00 | 17 | 1016.0 |
| 20260904133006 | 37 | 260 | 1.6 | 12.9 | 0.00 | 0.00 | 0.00 | 17 | 1016.0 |
| 20260904131501 | 37 | 336 | 3.2 | 9.7 | 0.00 | 0.00 | 0.00 | 16 | 1016.2 |
| 20260904130059 | 36 | 277 | 3.2 | 14.5 | 0.00 | 0.00 | 0.00 | 16 | 1016.4 |
| 20260904124613 | 36 | 272 | 3.2 | 11.3 | 0.00 | 0.00 | 0.00 | 18 | 1016.4 |
| 20260904123055 | 36 | 243 | 3.2 | 11.3 | 0.00 | 0.00 | 0.00 | 19 | 1016.6 |
| 20260904121555 | 36 | 274 | 3.2 | 9.7 | 0.00 | 0.00 | 0.00 | 18 | 1016.7 |
| 20260904120055 | 36 | 242 | 4.8 | 11.3 | 0.00 | 0.00 | 0.00 | 18 | 1016.9 |
| 20260904114548 | 36 | 297 | 3.2 | 11.3 | 0.00 | 0.00 | 0.00 | 19 | 1017.1 |
| 20260904113050 | 35 | 293 | 0.0 | 8.0 | 0.00 | 0.00 | 0.00 | 20 | 1017.3 |
| 20260904111544 | 35 | 226 | 0.0 | 9.7 | 0.00 | 0.00 | 0.00 | 21 | 1017.5 |
| 20260904110041 | 34 | 165 | 1.6 | 9.7 | 0.00 | 0.00 | 0.00 | 21 | 1017.8 |
| 20260904104541 | 33 | 223 | 3.2 | 8.0 | 0.00 | 0.00 | 0.00 | 22 | 1017.9 |
| 20260904103044 | 32 | 156 | 0.0 | 6.4 | 0.00 | 0.00 | 0.00 | 24 | 1018.2 |
| 20260904101535 | 32 | 153 | 0.0 | 6.4 | 0.00 | 0.00 | 0.00 | 25 | 1018.3 |
| 20260904100032 | 32 | 258 | 0.0 | 3.2 | 0.00 | 0.00 | 0.00 | 25 | 1018.3 |
| 20260904094529 | 31 | 300 | 1.6 | 4.8 | 0.00 | 0.00 | 0.00 | 25 | 1018.3 |
| 20260904093027 | 30 | 129 | 0.0 | 3.2 | 0.00 | 0.00 | 0.00 | 27 | 1018.3 |
| 20260904091523 | 29 | 127 | 0.0 | 1.6 | 0.00 | 0.00 | 0.00 | 31 | 1018.2 |
| 20260904090017 | 27 | 101 | 0.0 | 4.8 | 0.00 | 0.00 | 0.00 | 34 | 1018.3 |
| 20260904084516 | 27 | 58 | 0.0 | 0.0 | 0.00 | 0.00 | 0.00 | 37 | 1018.2 |
| 20260904083013 | 26 | 103 | 0.0 | 1.6 | 0.00 | 0.00 | 0.00 | 37 | 1018.2 |
| 20260904081508 | 25 | 123 | 0.0 | 1.6 | 0.00 | 0.00 | 0.00 | 38 | 1017.9 |
| 20260904080006 | 24 | 214 | 0.0 | 1.6 | 0.00 | 0.00 | 0.00 | 43 | 1018.0 |
| 20260904074505 | 22 | 229 | 0.0 | 0.0 | 0.00 | 0.00 | 0.00 | 49 | 1018.1 |
| 20260904073005 | 21 | 229 | 0.0 | 0.0 | 0.00 | 0.00 | 0.00 | 50 | 1018.1 |
| 20260904071504 | 21 | 229 | 0.0 | 0.0 | 0.00 | 0.00 | 0.00 | 46 | 1018.1 |
| 20260904064500 | 19 | 229 | 0.0 | 0.0 | 0.00 | 0.00 | 0.00 | 50 | 1017.7 |
| 20260904063105 | -17 | 0.0 | 0.0 | 0.00 | 0.00 | 0.00 | 1017.7 | ||
| 20260904061553 | -17 | 0.0 | 0.0 | 0.00 | 0.00 | 0.00 | 1017.6 | ||
| 20260904060048 | -17 | 0.0 | 0.0 | 0.00 | 0.00 | 0.00 | 1017.2 | ||
| 20260904054545 | -17 | 0.0 | 0.0 | 0.00 | 0.00 | 0.00 | 1017.2 | ||
| 20260904053041 | -17 | 0.0 | 0.0 | 0.00 | 0.00 | 0.00 | 1017.2 | ||
| 20260904051555 | -17 | 0.0 | 0.0 | 0.00 | 0.00 | 0.00 | 1017.1 |